EW1647 Weather Reports


Display with metric or nautical units.
time (UTC)temp
F
wind
direction
speed
MPH
gust
MPH
rain 1hr
in
rain 24hr
in
rain mn
in
humidity
%
barometer
mb
20260831123011 56 74 1.0 3.0 0.00 0.00 0.00 93 1014.6
20260831121509 56 76 1.0 4.0 0.00 0.00 0.00 94 1014.7
20260831120011 56 49 2.0 9.0 0.00 0.00 0.00 93 1014.8
20260831114509 56 351 3.0 8.0 0.00 0.00 0.00 93 1014.9
20260831113005 56 28 0.0 6.0 0.00 0.00 0.00 93 1015.1
20260831111501 56 59 0.0 3.0 0.00 0.00 0.00 93 1015.1
20260831110100 56 67 2.0 5.0 0.00 0.00 0.00 93 1015.3
20260831104559 56 74 0.0 4.0 0.00 0.00 0.00 92 1015.3
20260831103058 57 61 1.0 6.0 0.00 0.00 0.00 92 1015.4
20260831101556 57 300 2.0 11.0 0.00 0.00 0.00 93 1015.4
20260831100116 57 51 1.0 5.0 0.00 0.00 0.00 92 1015.6
20260831094552 57 5 3.0 9.0 0.00 0.00 0.00 92 1015.7
20260831093050 57 63 2.0 6.0 0.00 0.00 0.00 92 1015.9
20260831091552 57 67 2.0 9.0 0.00 0.00 0.00 92 1016.1
20260831090047 57 43 2.0 6.0 0.00 0.00 0.00 91 1016.2
20260831084608 57 104 2.0 6.0 0.00 0.00 0.00 91 1016.3
20260831083042 57 106 2.0 5.0 0.00 0.00 0.00 91 1016.3
20260831081541 57 48 2.0 8.0 0.00 0.00 0.00 90 1016.5
20260831080038 57 59 0.0 5.0 0.00 0.00 0.00 89 1016.4
20260831074545 57 101 1.0 4.0 0.00 0.00 0.00 89 1016.7
20260831073039 58 75 2.0 5.0 0.00 0.00 0.00 88 1016.7
20260831071534 58 65 1.0 5.0 0.00 0.00 0.00 86 1016.8
20260831070032 58 40 1.0 6.0 0.00 0.00 0.00 85 1017.0
20260831064529 58 28 4.0 10.0 0.00 0.00 0.00 85 1017.0
20260831063027 58 28 2.0 8.0 0.00 0.00 0.00 84 1017.2
20260831061526 58 15 3.0 9.0 0.00 0.00 0.00 83 1017.4
20260831060025 59 30 2.0 5.0 0.00 0.00 0.00 81 1017.3
20260831054525 59 67 4.0 6.0 0.00 0.00 0.00 81 1017.6
20260831053021 60 101 1.0 4.0 0.00 0.00 0.00 80 1017.7
20260831051520 60 106 1.0 4.0 0.00 0.00 0.00 79 1017.9
20260831050021 61 82 2.0 5.0 0.00 0.00 0.00 77 1018.0
20260831044520 61 99 3.0 10.0 0.00 0.00 0.00 75 1018.1
20260831043028 61 5 5.0 11.0 0.00 0.00 0.00 74 1018.1
20260831041518 62 344 3.0 11.0 0.00 0.00 0.00 73 1018.1
20260831040018 62 333 6.0 11.0 0.00 0.00 0.00 71 1018.1
20260831034516 63 67 2.0 8.0 0.00 0.00 0.00 70 1018.1
20260831033019 63 83 3.0 11.0 0.00 0.00 0.00 68 1017.9
20260831031517 64 336 3.0 10.0 0.00 0.00 0.00 65 1017.9
20260831030016 65 13 4.0 8.0 0.00 0.00 0.00 63 1017.8
20260831024522 66 5 2.0 8.0 0.00 0.00 0.00 60 1017.9
20260831023013 67 16 1.0 4.0 0.00 0.00 0.00 60 1018.0
20260831021513 68 14 1.0 4.0 0.00 0.00 0.00 56 1018.1
20260831020011 69 13 2.0 4.0 0.00 0.00 0.00 55 1018.1
20260831014511 70 13 2.0 4.0 0.00 0.00 0.00 54 1018.2
20260831013017 70 11 2.0 5.0 0.00 0.00 0.00 55 1018.4
20260831011516 71 22 3.0 5.0 0.00 0.00 0.00 56 1018.4
20260831010012 71 5 2.0 4.0 0.00 0.00 0.00 55 1018.5
20260831004505 72 349 2.0 4.0 0.00 0.00 0.00 57 1018.6
20260831003004 73 331 1.0 4.0 0.00 0.00 0.00 56 1018.7
20260831001512 72 325 1.0 4.0 0.00 0.00 0.00 55 1018.8
20260831000001 73 301 2.0 5.0 0.00 0.00 0.00 54 1018.9
20260830234606 73 315 1.0 5.0 0.00 0.00 0.00 55 1019.1
20260830233058 73 297 3.0 7.0 0.00 0.00 0.00 52 1019.1
20260830231603 73 300 3.0 6.0 0.00 0.00 0.00 52 1019.2
20260830230054 73 281 3.0 6.0 0.00 0.00 0.00 54 1019.2
20260830224604 73 291 3.0 6.0 0.00 0.00 0.00 54 1019.4
20260830223049 71 317 4.0 8.0 0.00 0.00 0.00 57 1019.6
20260830221546 72 287 4.0 9.0 0.00 0.00 0.00 57 1019.8
20260830220043 71 318 3.0 7.0 0.00 0.00 0.00 61 1019.9
20260830214545 70 306 3.0 8.0 0.00 0.00 0.00 62 1020.0
20260830213039 69 309 4.0 7.0 0.00 0.00 0.00 64 1020.2
20260830211538 69 323 2.0 5.0 0.00 0.00 0.00 63 1020.5
20260830210039 69 347 3.0 5.0 0.00 0.00 0.00 65 1020.5
20260830204538 68 315 3.0 6.0 0.00 0.00 0.00 67 1020.6
20260830203028 66 303 3.0 5.0 0.00 0.00 0.00 71 1020.7
20260830201526 65 304 3.0 5.0 0.00 0.00 0.00 72 1020.8
20260830200021 64 329 2.0 4.0 0.00 0.00 0.00 74 1020.9
20260830194519 64 312 3.0 6.0 0.00 0.00 0.00 76 1021.0
20260830193017 63 308 4.0 8.0 0.00 0.00 0.00 78 1021.1
20260830191514 62 300 5.0 8.0 0.00 0.00 0.00 80 1021.2
20260830190010 61 310 4.0 6.0 0.00 0.00 0.00 79 1021.1
20260830184510 61 329 2.0 4.0 0.00 0.00 0.00 79 1021.1
20260830183009 61 360 2.0 5.0 0.00 0.00 0.00 80 1021.2
20260830181509 61 355 2.0 4.0 0.00 0.00 0.00 80 1021.3
20260830180008 60 314 2.0 5.0 0.00 0.00 0.00 80 1021.2
20260830174505 60 301 3.0 6.0 0.00 0.00 0.00 81 1021.2
20260830173002 60 300 4.0 6.0 0.00 0.00 0.00 81 1021.2
20260830171501 60 306 4.0 6.0 0.00 0.00 0.00 82 1021.1
20260830170059 59 178 2.0 6.0 0.00 0.00 0.00 81 1021.0
20260830164559 58 237 2.0 7.0 0.00 0.00 0.00 82 1021.0
20260830163100 58 222 3.0 5.0 0.00 0.00 0.00 82 1021.0
20260830161623 58 242 3.0 8.0 0.00 0.00 0.00 82 1021.0
20260830160053 58 207 2.0 7.0 0.00 0.00 0.00 83 1021.2
20260830154553 57 174 2.0 8.0 0.00 0.00 0.00 82 1021.1
20260830153052 57 198 4.0 7.0 0.00 0.00 0.00 82 1021.1
20260830151551 57 146 3.0 7.0 0.00 0.00 0.00 82 1021.0
20260830150108 56 167 3.0 5.0 0.00 0.00 0.00 82 1021.1
20260830144549 56 150 2.0 7.0 0.00 0.20 0.00 83 1021.0
20260830143049 56 171 0.0 4.0 0.00 0.20 0.00 84 1020.9
20260830141546 55 162 1.0 5.0 0.00 0.20 0.00 84 1020.6
20260830140044 55 142 1.0 5.0 0.00 0.20 0.00 85 1020.5
20260830134545 55 155 1.0 3.0 0.00 0.24 0.00 85 1020.5
20260830133042 55 158 3.0 6.0 0.00 0.24 0.00 85 1020.5
20260830131551 55 157 4.0 7.0 0.00 0.24 0.00 85 1020.5
20260830130044 55 151 4.0 8.0 0.00 0.24 0.00 85 1020.4
20260830124540 55 142 5.0 8.0 0.00 0.24 0.00 86 1020.4